Location: Willow Grove Park
(46.1754°N, 123.0885°W)
Time: 01:44:35
(UTC-07:00)

ISS - Visible Passes

Search period start: 25 March 2019 00:00
Search period end: 04 April 2019 00:00
Orbit: 408 x 411 km, 51.6° (Epoch: 25 March)

Date Brightness Start Highest point End Pass type
(mag) Time Alt. Az. Time Alt. Az. Time Alt. Az.
25 Mar -3.8 19:57:52 10° SW 20:01:09 71° SSE 20:04:27 10° ENE visible
25 Mar -2.5 21:34:51 10° W 21:37:56 35° NNW 21:38:18 34° N visible
26 Mar -2.8 20:44:01 10° W 20:47:12 44° NNW 20:49:53 14° NE visible
26 Mar -1.0 22:21:18 10° WNW 22:22:39 20° NW 22:22:39 20° NW visible
27 Mar -2.3 21:30:30 10° WNW 21:33:29 30° N 21:34:08 28° NNE visible
28 Mar -2.3 20:39:39 10° WNW 20:42:41 33° N 20:45:34 11° ENE visible
28 Mar -1.4 22:16:42 10° WNW 22:18:19 23° NW 22:18:19 23° NW visible
29 Mar -2.4 21:25:59 10° WNW 21:29:00 31° N 21:29:42 28° NNE visible
30 Mar -2.3 20:35:12 10° WNW 20:38:11 30° N 20:41:02 11° ENE visible
30 Mar -1.8 22:11:58 10° WNW 22:13:48 28° NW 22:13:48 28° NW visible
31 Mar -2.9 21:21:17 10° WNW 21:24:27 40° NNE 21:25:07 35° NE visible
01 Apr -2.5 20:30:34 10° WNW 20:33:37 33° N 20:36:26 11° ENE visible
01 Apr -2.2 22:07:08 10° WNW 22:09:11 35° WNW 22:09:11 35° WNW visible
02 Apr -3.7 21:16:27 10° WNW 21:19:44 64° NNE 21:20:31 45° E visible
03 Apr -3.1 20:25:44 10° WNW 20:28:56 46° NNE 20:31:51 12° E visible
03 Apr -2.2 22:02:24 10° WNW 22:04:37 31° WSW 22:04:37 31° WSW visible
